Time,TemperatureF,DewpointF,PressureIn,WindDirection,WindDirectionDegrees,WindSpeedMPH,WindSpeedGustMPH,Humidity,HourlyPrecipIn,Conditions,Clouds,dailyrainin,SoftwareType,DateUTC
2013-03-06 00:01:00,62.0,57.0,30.15,East,90,1.0,-999.0,83,-99.99,,,-99.99,,2013-03-06 10:01:00,
2013-03-06 00:11:00,62.0,57.0,30.15,East,90,1.0,-999.0,83,-99.99,,,-99.99,,2013-03-06 10:11:00,
2013-03-06 00:21:00,63.0,57.0,30.15,ENE,73,1.0,-999.0,82,-99.99,,,-99.99,,2013-03-06 10:21:00,
2013-03-06 00:31:00,63.0,57.0,30.16,ENE,75,1.0,-999.0,82,-99.99,,,-99.99,,2013-03-06 10:31:00,
2013-03-06 00:41:00,63.0,57.0,30.16,ENE,75,1.0,-999.0,82,-99.99,,,-99.99,,2013-03-06 10:41:00,
2013-03-06 00:52:00,64.0,58.0,30.14,ENE,78,1.0,-999.0,80,-99.99,,,-99.99,,2013-03-06 10:52:00,
2013-03-06 01:01:00,63.0,56.0,30.14,ENE,67,1.0,-999.0,79,-99.99,,,-99.99,,2013-03-06 11:01:00,
2013-03-06 01:11:00,63.0,56.0,30.14,ENE,67,1.0,-999.0,79,-99.99,,,-99.99,,2013-03-06 11:11:00,
2013-03-06 01:22:00,62.0,56.0,30.13,ENE,67,1.0,-999.0,80,-99.99,,,-99.99,,2013-03-06 11:22:00,
2013-03-06 01:31:00,61.0,55.0,30.13,ENE,69,0.0,-999.0,81,-99.99,,,-99.99,,2013-03-06 11:31:00,
2013-03-06 01:42:00,61.0,55.0,30.13,ENE,69,0.0,-999.0,81,-99.99,,,-99.99,,2013-03-06 11:42:00,
2013-03-06 01:52:00,61.0,55.0,30.12,ENE,59,1.0,-999.0,80,-99.99,,,-99.99,,2013-03-06 11:52:00,
2013-03-06 02:01:00,61.0,55.0,30.12,ENE,59,1.0,-999.0,81,-99.99,,,-99.99,,2013-03-06 12:01:00,
2013-03-06 02:11:00,61.0,55.0,30.12,ENE,59,1.0,-999.0,81,-99.99,,,-99.99,,2013-03-06 12:11:00,
2013-03-06 02:21:00,60.0,55.0,30.12,ENE,59,1.0,-999.0,83,-99.99,,,-99.99,,2013-03-06 12:21:00,
2013-03-06 02:32:00,60.0,55.0,30.11,ENE,59,0.0,-999.0,85,-99.99,,,-99.99,,2013-03-06 12:32:00,
2013-03-06 02:42:00,60.0,55.0,30.11,ENE,59,0.0,-999.0,85,-99.99,,,-99.99,,2013-03-06 12:42:00,
2013-03-06 02:52:00,60.0,56.0,30.10,ENE,59,0.0,-999.0,86,-99.99,,,-99.99,,2013-03-06 12:52:00,
2013-03-06 03:01:00,60.0,55.0,30.10,East,82,1.0,-999.0,85,-99.99,,,-99.99,,2013-03-06 13:01:00,
2013-03-06 03:11:00,60.0,55.0,30.10,East,82,1.0,-999.0,85,-99.99,,,-99.99,,2013-03-06 13:11:00,
2013-03-06 03:21:00,60.0,55.0,30.09,East,82,1.0,-999.0,84,-99.99,,,-99.99,,2013-03-06 13:21:00,
2013-03-06 03:31:00,61.0,56.0,30.09,East,84,2.0,-999.0,83,-99.99,,,-99.99,,2013-03-06 13:31:00,
2013-03-06 03:42:00,61.0,56.0,30.09,East,84,2.0,-999.0,83,-99.99,,,-99.99,,2013-03-06 13:42:00,
2013-03-06 03:52:00,61.0,55.0,30.09,ENE,67,2.0,-999.0,81,-99.99,,,-99.99,,2013-03-06 13:52:00,
2013-03-06 04:01:00,62.0,56.0,30.09,East,82,2.0,-999.0,80,-99.99,,,-99.99,,2013-03-06 14:01:00,
2013-03-06 04:11:00,62.0,56.0,30.09,East,82,2.0,-999.0,80,-99.99,,,-99.99,,2013-03-06 14:11:00,
2013-03-06 04:21:00,62.0,55.0,30.08,East,92,2.0,-999.0,77,-99.99,,,-99.99,,2013-03-06 14:21:00,
2013-03-06 04:31:00,62.0,54.0,30.09,ENE,76,2.0,-999.0,76,-99.99,,,-99.99,,2013-03-06 14:31:00,
2013-03-06 04:41:00,62.0,54.0,30.09,ENE,76,2.0,-999.0,76,-99.99,,,-99.99,,2013-03-06 14:41:00,
2013-03-06 04:52:00,62.0,54.0,30.09,ENE,75,2.0,-999.0,76,-99.99,,,-99.99,,2013-03-06 14:52:00,
2013-03-06 05:01:00,62.0,54.0,30.09,East,80,1.0,-999.0,76,-99.99,,,-99.99,,2013-03-06 15:01:00,
2013-03-06 05:11:00,62.0,54.0,30.09,East,80,1.0,-999.0,76,-99.99,,,-99.99,,2013-03-06 15:11:00,
2013-03-06 05:21:00,62.0,54.0,30.08,East,82,2.0,-999.0,76,-99.99,,,-99.99,,2013-03-06 15:21:00,
2013-03-06 05:32:00,62.0,54.0,30.09,ESE,107,2.0,-999.0,76,-99.99,,,-99.99,,2013-03-06 15:32:00,
2013-03-06 05:41:00,62.0,54.0,30.09,ESE,107,2.0,-999.0,76,-99.99,,,-99.99,,2013-03-06 15:41:00,
2013-03-06 05:52:00,62.0,54.0,30.09,ENE,74,1.0,-999.0,76,-99.99,,,-99.99,,2013-03-06 15:52:00,
2013-03-06 06:01:00,61.0,53.0,30.09,East,80,1.0,-999.0,76,-99.99,,,-99.99,,2013-03-06 16:01:00,
2013-03-06 06:11:00,61.0,53.0,30.09,East,80,1.0,-999.0,76,-99.99,,,-99.99,,2013-03-06 16:11:00,
2013-03-06 06:21:00,61.0,54.0,30.10,East,82,1.0,-999.0,77,-99.99,,,-99.99,,2013-03-06 16:21:00,
2013-03-06 06:32:00,61.0,54.0,30.10,East,101,2.0,-999.0,78,-99.99,,,-99.99,,2013-03-06 16:32:00,
2013-03-06 06:41:00,61.0,54.0,30.10,East,101,2.0,-999.0,78,-99.99,,,-99.99,,2013-03-06 16:41:00,
2013-03-06 06:52:00,62.0,54.0,30.11,East,82,2.0,-999.0,76,-99.99,,,-99.99,,2013-03-06 16:52:00,
2013-03-06 07:01:00,62.0,54.0,30.12,East,94,1.0,-999.0,75,-99.99,,,-99.99,,2013-03-06 17:01:00,
2013-03-06 07:11:00,62.0,54.0,30.12,East,94,1.0,-999.0,75,-99.99,,,-99.99,,2013-03-06 17:11:00,
2013-03-06 07:21:00,62.0,54.0,30.12,East,88,1.0,-999.0,75,-99.99,,,-99.99,,2013-03-06 17:21:00,
2013-03-06 07:31:00,62.0,54.0,30.12,ENE,65,1.0,-999.0,75,-99.99,,,-99.99,,2013-03-06 17:31:00,
2013-03-06 07:41:00,62.0,54.0,30.12,ENE,65,1.0,-999.0,75,-99.99,,,-99.99,,2013-03-06 17:41:00,
2013-03-06 07:52:00,62.0,54.0,30.14,East,90,1.0,-999.0,76,-99.99,,,-99.99,,2013-03-06 17:52:00,
2013-03-06 08:01:00,64.0,56.0,30.14,East,94,1.0,-999.0,76,-99.99,,,-99.99,,2013-03-06 18:01:00,
2013-03-06 08:28:00,66.0,58.0,30.14,ESE,109,2.0,-999.0,76,-99.99,,,-99.99,,2013-03-06 18:28:00,
2013-03-06 08:41:00,68.0,59.0,30.14,SE,138,1.0,-999.0,72,-99.99,,,-99.99,,2013-03-06 18:41:00,
2013-03-06 08:52:00,69.0,61.0,30.15,ESE,104,1.0,-999.0,75,-99.99,,,-99.99,,2013-03-06 18:52:00,
2013-03-06 09:01:00,69.0,61.0,30.15,South,178,1.0,-999.0,77,-99.99,,,-99.99,,2013-03-06 19:01:00,
2013-03-06 09:11:00,69.0,61.0,30.15,South,178,1.0,-999.0,77,-99.99,,,-99.99,,2013-03-06 19:11:00,
2013-03-06 09:21:00,69.0,61.0,30.15,South,178,1.0,-999.0,77,-99.99,,,-99.99,,2013-03-06 19:21:00,
2013-03-06 09:31:00,70.0,62.0,30.16,South,184,3.0,-999.0,76,-99.99,,,-99.99,,2013-03-06 19:31:00,
2013-03-06 09:42:00,70.0,62.0,30.16,South,184,3.0,-999.0,76,-99.99,,,-99.99,,2013-03-06 19:42:00,
2013-03-06 09:52:00,71.0,63.0,30.16,SSW,205,3.0,-999.0,77,-99.99,,,-99.99,,2013-03-06 19:52:00,
2013-03-06 10:01:00,71.0,63.0,30.16,SSW,213,3.0,-999.0,76,-99.99,,,-99.99,,2013-03-06 20:01:00,
2013-03-06 10:11:00,71.0,63.0,30.16,SSW,213,3.0,-999.0,76,-99.99,,,-99.99,,2013-03-06 20:11:00,
2013-03-06 10:21:00,71.0,63.0,30.17,SW,228,3.0,-999.0,75,-99.99,,,-99.99,,2013-03-06 20:21:00,
2013-03-06 10:31:00,72.0,62.0,30.17,WSW,247,2.0,-999.0,71,-99.99,,,-99.99,,2013-03-06 20:31:00,
2013-03-06 10:41:00,72.0,62.0,30.17,WSW,247,2.0,-999.0,71,-99.99,,,-99.99,,2013-03-06 20:41:00,
2013-03-06 10:52:00,72.0,61.0,30.17,South,189,3.0,-999.0,69,-99.99,,,-99.99,,2013-03-06 20:52:00,
2013-03-06 11:01:00,72.0,62.0,30.17,SSW,207,4.0,-999.0,72,-99.99,,,-99.99,,2013-03-06 21:01:00,
2013-03-06 11:11:00,72.0,62.0,30.17,SSW,207,4.0,-999.0,72,-99.99,,,-99.99,,2013-03-06 21:11:00,
2013-03-06 11:22:00,72.0,62.0,30.17,South,182,3.0,-999.0,71,-99.99,,,-99.99,,2013-03-06 21:22:00,
2013-03-06 11:31:00,72.0,62.0,30.16,South,186,3.0,-999.0,72,-99.99,,,-99.99,,2013-03-06 21:31:00,
2013-03-06 11:41:00,72.0,62.0,30.16,South,186,3.0,-999.0,72,-99.99,,,-99.99,,2013-03-06 21:41:00,
2013-03-06 11:52:00,73.0,63.0,30.15,West,259,4.0,-999.0,70,-99.99,,,-99.99,,2013-03-06 21:52:00,
2013-03-06 12:01:00,73.0,63.0,30.14,SSW,198,4.0,-999.0,72,-99.99,,,-99.99,,2013-03-06 22:01:00,
2013-03-06 12:11:00,73.0,63.0,30.14,SSW,198,4.0,-999.0,72,-99.99,,,-99.99,,2013-03-06 22:11:00,
2013-03-06 12:21:00,74.0,64.0,30.14,West,277,3.0,-999.0,70,-99.99,,,-99.99,,2013-03-06 22:21:00,
2013-03-06 12:31:00,73.0,63.0,30.13,SSW,196,4.0,-999.0,71,-99.99,,,-99.99,,2013-03-06 22:31:00,
2013-03-06 12:41:00,73.0,63.0,30.13,SSW,196,4.0,-999.0,71,-99.99,,,-99.99,,2013-03-06 22:41:00,
2013-03-06 12:52:00,73.0,64.0,30.13,SSW,204,5.0,-999.0,74,-99.99,,,-99.99,,2013-03-06 22:52:00,
2013-03-06 13:01:00,73.0,63.0,30.12,WNW,298,4.0,-999.0,70,-99.99,,,-99.99,,2013-03-06 23:01:00,
2013-03-06 13:11:00,73.0,63.0,30.12,WNW,298,4.0,-999.0,70,-99.99,,,-99.99,,2013-03-06 23:11:00,
2013-03-06 13:21:00,74.0,61.0,30.12,West,261,4.0,-999.0,65,-99.99,,,-99.99,,2013-03-06 23:21:00,
2013-03-06 13:31:00,74.0,62.0,30.11,SSW,212,4.0,-999.0,66,-99.99,,,-99.99,,2013-03-06 23:31:00,
2013-03-06 13:41:00,74.0,62.0,30.11,SSW,212,4.0,-999.0,66,-99.99,,,-99.99,,2013-03-06 23:41:00,
2013-03-06 13:52:00,75.0,62.0,30.11,SW,235,4.0,-999.0,64,-99.99,,,-99.99,,2013-03-06 23:52:00,
2013-03-06 14:01:00,75.0,63.0,30.10,NW,320,4.0,-999.0,66,-99.99,,,-99.99,,2013-03-07 00:01:00,
2013-03-06 14:11:00,75.0,63.0,30.10,NW,320,4.0,-999.0,66,-99.99,,,-99.99,,2013-03-07 00:11:00,
2013-03-06 14:21:00,74.0,62.0,30.10,West,261,4.0,-999.0,66,-99.99,,,-99.99,,2013-03-07 00:21:00,
2013-03-06 14:31:00,74.0,63.0,30.09,WNW,285,4.0,-999.0,69,-99.99,,,-99.99,,2013-03-07 00:31:00,
2013-03-06 14:41:00,74.0,63.0,30.09,WNW,285,4.0,-999.0,69,-99.99,,,-99.99,,2013-03-07 00:41:00,
2013-03-06 14:52:00,74.0,64.0,30.09,North,360,5.0,-999.0,72,-99.99,,,-99.99,,2013-03-07 00:52:00,
2013-03-06 15:01:00,74.0,64.0,30.08,NNW,327,4.0,-999.0,71,-99.99,,,-99.99,,2013-03-07 01:01:00,
2013-03-06 15:11:00,74.0,64.0,30.08,NNW,327,4.0,-999.0,71,-99.99,,,-99.99,,2013-03-07 01:11:00,
2013-03-06 15:21:00,75.0,65.0,30.09,WNW,298,4.0,-999.0,70,-99.99,,,-99.99,,2013-03-07 01:21:00,
2013-03-06 15:31:00,74.0,64.0,30.08,West,279,4.0,-999.0,70,-99.99,,,-99.99,,2013-03-07 01:31:00,
2013-03-06 15:41:00,74.0,64.0,30.08,West,279,4.0,-999.0,70,-99.99,,,-99.99,,2013-03-07 01:41:00,
2013-03-06 15:52:00,74.0,64.0,30.08,WNW,288,4.0,-999.0,71,-99.99,,,-99.99,,2013-03-07 01:52:00,
2013-03-06 16:01:00,74.0,64.0,30.08,West,274,6.0,-999.0,70,-99.99,,,-99.99,,2013-03-07 02:01:00,
2013-03-06 16:11:00,74.0,64.0,30.08,West,274,6.0,-999.0,70,-99.99,,,-99.99,,2013-03-07 02:11:00,
2013-03-06 16:21:00,75.0,64.0,30.08,NNW,330,4.0,-999.0,69,-99.99,,,-99.99,,2013-03-07 02:21:00,
2013-03-06 16:31:00,74.0,63.0,30.08,WNW,298,4.0,-999.0,68,-99.99,,,-99.99,,2013-03-07 02:31:00,
2013-03-06 16:41:00,74.0,63.0,30.08,WNW,298,4.0,-999.0,68,-99.99,,,-99.99,,2013-03-07 02:41:00,
2013-03-06 16:52:00,74.0,63.0,30.08,WNW,298,4.0,-999.0,68,-99.99,,,-99.99,,2013-03-07 02:52:00,
2013-03-06 17:01:00,73.0,62.0,30.09,WSW,243,4.0,-999.0,69,-99.99,,,-99.99,,2013-03-07 03:01:00,
2013-03-06 17:11:00,73.0,62.0,30.09,WSW,243,4.0,-999.0,69,-99.99,,,-99.99,,2013-03-07 03:11:00,
2013-03-06 17:21:00,73.0,63.0,30.09,NW,321,4.0,-999.0,71,-99.99,,,-99.99,,2013-03-07 03:21:00,
2013-03-06 17:31:00,73.0,63.0,30.09,WNW,285,3.0,-999.0,72,-99.99,,,-99.99,,2013-03-07 03:31:00,
2013-03-06 17:41:00,73.0,63.0,30.09,WNW,285,3.0,-999.0,72,-99.99,,,-99.99,,2013-03-07 03:41:00,
2013-03-06 17:52:00,72.0,61.0,30.09,NW,304,3.0,-999.0,69,-99.99,,,-99.99,,2013-03-07 03:52:00,
2013-03-06 18:01:00,72.0,62.0,30.10,WSW,250,1.0,-999.0,71,-99.99,,,-99.99,,2013-03-07 04:01:00,
2013-03-06 18:11:00,72.0,62.0,30.10,WSW,250,1.0,-999.0,71,-99.99,,,-99.99,,2013-03-07 04:11:00,
2013-03-06 18:21:00,71.0,62.0,30.10,West,271,3.0,-999.0,72,-99.99,,,-99.99,,2013-03-07 04:21:00,
2013-03-06 18:31:00,71.0,62.0,30.10,West,268,1.0,-999.0,73,-99.99,,,-99.99,,2013-03-07 04:31:00,
2013-03-06 18:41:00,71.0,62.0,30.10,West,268,1.0,-999.0,73,-99.99,,,-99.99,,2013-03-07 04:41:00,
2013-03-06 18:52:00,70.0,61.0,30.10,West,268,0.0,-999.0,72,-99.99,,,-99.99,,2013-03-07 04:52:00,
2013-03-06 19:01:00,69.0,60.0,30.10,West,268,0.0,-999.0,74,-99.99,,,-99.99,,2013-03-07 05:01:00,
2013-03-06 19:12:00,69.0,60.0,30.10,West,268,0.0,-999.0,74,-99.99,,,-99.99,,2013-03-07 05:12:00,
2013-03-06 19:22:00,68.0,61.0,30.11,West,268,0.0,-999.0,78,-99.99,,,-99.99,,2013-03-07 05:22:00,
2013-03-06 19:31:00,67.0,60.0,30.11,SSW,201,0.0,-999.0,78,-99.99,,,-99.99,,2013-03-07 05:31:00,
2013-03-06 19:41:00,67.0,60.0,30.11,SSW,201,0.0,-999.0,78,-99.99,,,-99.99,,2013-03-07 05:41:00,
2013-03-06 19:52:00,66.0,59.0,30.11,ENE,71,1.0,-999.0,77,-99.99,,,-99.99,,2013-03-07 05:52:00,
2013-03-06 20:01:00,66.0,59.0,30.11,ENE,71,0.0,-999.0,77,-99.99,,,-99.99,,2013-03-07 06:01:00,
2013-03-06 20:11:00,66.0,59.0,30.11,ENE,71,0.0,-999.0,77,-99.99,,,-99.99,,2013-03-07 06:11:00,
2013-03-06 20:21:00,66.0,59.0,30.11,ENE,71,0.0,-999.0,77,-99.99,,,-99.99,,2013-03-07 06:21:00,
2013-03-06 20:31:00,65.0,56.0,30.11,East,92,2.0,-999.0,73,-99.99,,,-99.99,,2013-03-07 06:31:00,
2013-03-06 20:41:00,65.0,56.0,30.11,East,92,2.0,-999.0,73,-99.99,,,-99.99,,2013-03-07 06:41:00,
2013-03-06 20:52:00,65.0,55.0,30.12,East,80,2.0,-999.0,71,-99.99,,,-99.99,,2013-03-07 06:52:00,
2013-03-06 21:01:00,65.0,55.0,30.13,East,84,0.0,-999.0,70,-99.99,,,-99.99,,2013-03-07 07:01:00,
2013-03-06 21:11:00,65.0,55.0,30.13,East,84,0.0,-999.0,70,-99.99,,,-99.99,,2013-03-07 07:11:00,
2013-03-06 21:21:00,64.0,54.0,30.13,ENE,76,1.0,-999.0,71,-99.99,,,-99.99,,2013-03-07 07:21:00,
2013-03-06 21:31:00,64.0,54.0,30.14,East,80,1.0,-999.0,71,-99.99,,,-99.99,,2013-03-07 07:31:00,
2013-03-06 21:41:00,64.0,54.0,30.14,East,80,1.0,-999.0,71,-99.99,,,-99.99,,2013-03-07 07:41:00,
2013-03-06 21:52:00,64.0,54.0,30.14,ENE,68,2.0,-999.0,70,-99.99,,,-99.99,,2013-03-07 07:52:00,
2013-03-06 22:01:00,64.0,54.0,30.14,East,89,0.0,-999.0,70,-99.99,,,-99.99,,2013-03-07 08:01:00,
2013-03-06 22:11:00,64.0,54.0,30.14,East,89,0.0,-999.0,70,-99.99,,,-99.99,,2013-03-07 08:11:00,
2013-03-06 22:22:00,64.0,54.0,30.14,East,80,1.0,-999.0,70,-99.99,,,-99.99,,2013-03-07 08:22:00,
2013-03-06 22:31:00,64.0,54.0,30.14,ENE,77,1.0,-999.0,69,-99.99,,,-99.99,,2013-03-07 08:31:00,
2013-03-06 22:43:00,64.0,54.0,30.14,ENE,77,1.0,-999.0,69,-99.99,,,-99.99,,2013-03-07 08:43:00,
2013-03-06 22:53:00,64.0,54.0,30.13,ENE,72,1.0,-999.0,69,-99.99,,,-99.99,,2013-03-07 08:53:00,
2013-03-06 23:01:00,65.0,54.0,30.13,East,84,1.0,-999.0,68,-99.99,,,-99.99,,2013-03-07 09:01:00,
2013-03-06 23:11:00,65.0,54.0,30.13,East,84,1.0,-999.0,68,-99.99,,,-99.99,,2013-03-07 09:11:00,
2013-03-06 23:22:00,65.0,55.0,30.13,East,79,1.0,-999.0,69,-99.99,,,-99.99,,2013-03-07 09:22:00,
2013-03-06 23:31:00,65.0,55.0,30.13,East,85,1.0,-999.0,70,-99.99,,,-99.99,,2013-03-07 09:31:00,
2013-03-06 23:41:00,65.0,55.0,30.13,East,85,1.0,-999.0,70,-99.99,,,-99.99,,2013-03-07 09:41:00,
2013-03-06 23:52:00,65.0,55.0,30.12,ESE,115,1.0,-999.0,69,-99.99,,,-99.99,,2013-03-07 09:52:00,